Location: Clanezzo
(45.7500°N, 9.6000°E)
Time: 06:09:14
(UTC+00:00)

Gbstr 26 Del rocket - Pass Details

Date: 26 September 2021
Orbit: 492 x 1263 km, 51.8° (Epoch: 20 October)

Event Time Altitude Azimuth Distance (km) Brightness Sun altitude
Exits shadow 02:50:57 48° 222° (SW) 1,474 4.5 -24.9°
Drops below altitude 10° 02:57:26 10° 153° (SSE) 2,812 6.4 -23.9°
Sets 02:59:57 0° 148° (SSE) 3,650 7.1 -23.5°
